Home   Weather   Lanchow   Past weeks

Flag for China Past Weather in Lanchow, Gansu, China — Yesterday and Last 2 Weeks

Now
5 °F

Clear.


Feels Like: -2 °F
Forecast: 7 / 42 °F
Wind: 3 mph from Northwest

Location: Lanzhou / Zhongchuan

Current Time: Jan 22, 2017 at 9:54:08 am

Latest Report: Jan 22, 2017 at 9:00 am


Visibility: 10 mi

Pressure: 30.39 "Hg (24.82 "Hg at 1531m altitude)

Humidity: 51%

Dew Point: -9 °F

Location of LanchowLocation

Past Weather in Lanchow — Graph

°F

Lanchow Temperature Yesterday

Maximum temperature yesterday: 37 °F (at 3:00 pm)
Minimum temperature yesterday: 1 °F (at 8:00 am)
Average temperature yesterday: 18 °F

High & Low Weather Summary for the Past Weeks

 TemperatureHumidityPressure
High37 °F (Jan 21, 3:00 pm)78% (Jan 8, 5:00 am)30.42 "Hg (Jan 8, 5:00 am)
Low-2 °F (Jan 12, 8:00 am)16% (Jan 21, 6:00 pm)29.95 "Hg (Jan 13, 3:00 pm)
Average16 °F49%30.18 "Hg
* Reported Jan 7 8:00 am — Jan 22 8:00 am, Lanchow, Weather by CustomWeather, © 2017

Note: Actual official high and low records may vary slightly from our data, if they occured in-between our weather recording intervals... More about our weather records

Advertising

Lanchow Weather History for the Previous 24 Hours

Scroll right to see more
 ConditionsComfort  
Time TempWeatherWind HumidityBarometerVisibility
8:00 am
Sun, Jan 22
1 °FClear.3 mph55%30.36 "Hg10 mi
7:00 am1 °FClear.3 mph55%30.36 "Hg10 mi
6:00 am5 °FClear.6 mph51%30.36 "Hg10 mi
5:00 am5 °FClear.6 mph46%30.36 "Hg10 mi
4:00 am7 °FClear.6 mph43%30.39 "Hg10 mi
3:00 am7 °FClear.8 mph43%30.39 "Hg10 mi
2:00 am9 °FClear.6 mph43%30.39 "Hg10 mi
1:00 am7 °FClear.6 mph43%30.39 "Hg10 mi
12:00 am9 °FClear.6 mph39%30.39 "Hg10 mi
11:00 pm
Sat, Jan 21
14 °FClear.6 mph34%30.39 "Hg10 mi
10:00 pm12 °FClear.1 mph37%30.36 "Hg10 mi
9:00 pm16 °FClear.1 mph31%30.36 "Hg10 mi
8:00 pm25 °FClear.1 mph23%30.33 "Hg10 mi
7:00 pm28 °FPassing clouds.6 mph22%30.30 "HgN/A
6:00 pm34 °FPassing clouds.8 mph16%30.27 "HgN/A
5:00 pm37 °FPassing clouds.6 mph17%30.21 "HgN/A
4:00 pm37 °FPassing clouds.6 mph18%30.21 "HgN/A
3:00 pm37 °FPassing clouds.6 mph17%30.21 "HgN/A
2:00 pm36 °FPassing clouds.8 mph20%30.21 "HgN/A
1:00 pm32 °FPassing clouds.6 mph23%30.27 "HgN/A
12:00 pm28 °FPassing clouds.3 mph26%30.33 "HgN/A
11:00 am25 °FPassing clouds.3 mph30%30.33 "HgN/A
10:00 am16 °FClear.1 mph37%30.36 "Hg5 mi
9:00 am3 °FClear.3 mph55%30.33 "Hg4 mi
Weather by CustomWeather, © 2017

See weather overviewHow to use our weather pages